Theta_e
352 353 356 362 363 364 364 364 364 364 364 365 365 365 365 365 365 366 366 366 365 365 365 365 365 365 365 364 364 364 364 364 364 364 364 365 365 366 366 366 365 364 364 365 365 365 364 365 364 364 363 361 362 361 362 364 362 362 361 362 362 362 361 361 360 361 360 359 360 359 359 359 360 360 360 360 360 362 363 363 362 358 357 358 360
352 355 357 360 364 363 364 364 364 364 364 364 365 365 365 365 365 365 365 365 365 365 365 365 365 365 365 365 365 364 364 364 363 363 364 364 365 365 365 364 364 364 365 364 364 363 365 365 364 363 363 362 360 360 363 365 363 361 363 362 362 360 359 360 360 360 361 360 360 359 359 360 359 359 360 362 362 363 363 363 362 358 357 360 360
355 356 358 361 364 364 364 364 364 363 364 365 365 365 365 365 365 364 365 365 365 365 365 364 364 364 364 364 364 364 364 365 364 363 364 362 362 364 364 364 364 364 364 364 364 364 364 365 365 364 364 363 361 362 363 362 362 363 363 362 361 360 360 360 360 360 361 361 361 361 361 361 362 362 360 362 360 359 360 360 362 361 358 360 360
355 356 358 361 364 364 364 363 363 363 363 364 364 365 365 364 365 364 365 365 365 364 364 364 364 363 364 364 364 364 364 363 363 363 362 362 363 364 364 363 362 364 364 363 363 363 364 363 364 363 364 363 363 361 362 361 362 362 362 362 361 360 360 359 360 360 361 362 362 360 359 355 359 364 361 361 362 361 360 361 361 360 360 360 360
355 357 358 360 361 363 364 364 364 364 365 366 366 366 365 365 364 365 365 365 365 364 364 364 365 364 364 363 362 363 363 364 364 363 361 360 362 364 364 363 363 363 363 364 363 363 362 362 364 363 363 362 362 363 362 363 362 362 361 361 362 361 360 360 361 362 362 363 362 358 354 354 356 360 360 361 361 363 362 361 361 361 361 360 360
356 357 359 359 360 362 364 364 364 364 365 365 365 365 365 365 365 366 365 365 365 364 364 364 364 363 362 362 362 362 362 363 363 363 362 362 363 362 363 362 362 363 362 363 362 363 364 364 363 363 362 363 362 362 363 364 362 362 362 362 362 361 360 360 361 361 362 363 361 354 355 355 356 357 361 360 360 362 362 361 361 360 361 361 361
357 357 358 359 360 362 364 365 364 365 365 365 365 365 365 366 366 365 365 365 365 364 364 364 363 363 363 362 362 362 362 363 362 362 362 363 363 362 362 361 361 361 361 362 362 363 364 364 364 363 362 362 363 363 361 362 363 363 362 362 362 361 361 361 361 362 361 356 351 352 352 354 355 356 361 361 362 362 361 361 360 360 360 360 360
357 358 358 359 359 362 365 366 365 365 365 365 365 366 366 365 365 365 365 365 364 364 363 363 363 363 363 363 362 363 362 362 362 362 362 362 362 362 360 361 361 360 359 362 363 363 362 363 363 364 362 363 363 361 362 361 360 362 363 362 362 361 360 360 361 361 359 350 350 351 352 353 354 355 359 360 361 361 361 360 359 360 361 361 360
355 357 358 359 360 364 365 365 365 365 365 365 365 365 365 365 365 364 362 362 363 363 362 362 362 362 362 363 362 361 360 362 361 362 362 362 361 360 358 358 360 357 358 361 362 364 363 362 362 362 362 362 363 363 363 362 363 363 363 362 361 361 361 360 360 360 355 351 350 351 352 353 355 355 358 361 361 360 360 359 358 360 360 360 360
355 356 358 358 360 364 364 365 365 365 366 366 366 365 365 364 363 364 363 363 363 362 363 362 362 362 362 362 361 361 360 361 361 362 362 362 360 357 357 358 359 359 359 361 361 362 362 362 361 361 362 361 362 362 362 362 363 363 363 364 363 361 361 361 361 359 351 351 352 353 356 358 353 354 358 359 360 360 361 361 359 360 360 361 360
354 355 357 359 361 364 365 366 365 366 366 366 366 366 365 364 364 364 363 362 361 361 361 361 361 361 362 362 361 361 361 361 361 360 362 362 361 358 357 357 358 359 361 361 362 361 362 363 361 363 362 361 362 362 363 362 363 363 364 363 360 360 361 361 358 350 350 351 352 353 357 359 351 353 360 360 360 360 361 361 361 360 359 358 358
354 355 357 359 365 365 365 365 365 366 366 365 366 365 365 364 362 363 362 361 362 363 362 362 362 362 362 362 362 361 361 360 361 360 361 361 360 360 357 356 358 359 360 361 362 362 362 362 362 362 362 362 363 363 362 362 363 363 363 363 360 360 361 360 352 351 351 351 351 351 351 352 352 355 360 360 359 359 361 359 359 358 358 358 358
353 355 357 360 362 366 366 365 365 365 365 365 365 365 364 363 362 362 362 363 363 362 362 361 361 362 362 362 360 360 360 360 362 362 363 361 362 360 358 356 358 359 360 362 362 362 361 362 362 364 364 363 363 362 361 361 362 363 363 362 360 359 360 360 351 351 350 350 351 351 351 351 353 360 360 360 359 359 359 358 358 358 358 358 358
352 354 358 360 362 366 365 365 365 365 365 365 365 364 364 361 362 361 362 363 362 362 362 362 362 362 361 361 360 361 361 360 361 362 361 362 360 362 358 358 359 360 361 362 363 362 362 363 363 364 363 363 363 362 362 362 362 362 362 360 360 361 362 360 357 352 352 352 353 352 351 354 353 359 360 359 359 359 358 359 358 357 357 357 357
352 355 358 360 362 362 366 365 366 365 365 365 364 363 363 362 363 362 362 362 362 361 360 362 362 362 362 362 362 361 361 360 361 361 361 362 361 362 360 360 360 362 361 362 363 362 363 362 362 363 363 363 362 360 360 361 362 362 361 361 361 362 361 353 353 353 353 355 354 354 351 352 359 359 360 359 359 359 358 357 358 357 357 357 357
354 356 358 360 360 361 362 366 365 365 365 365 364 363 362 362 361 362 362 362 362 361 362 362 362 363 362 361 361 361 361 360 360 361 360 361 362 362 363 361 361 361 362 363 363 362 362 363 362 362 362 362 362 360 361 361 361 362 361 360 361 362 361 358 352 352 352 353 354 355 353 355 359 359 359 359 359 358 358 358 358 358 358 358 357
354 357 359 360 361 361 362 362 363 365 365 364 363 362 362 362 362 362 362 363 362 362 362 362 362 363 362 362 361 362 361 361 361 361 360 362 360 360 361 361 360 361 361 362 363 362 363 362 362 362 362 363 362 360 361 362 362 361 361 361 361 362 362 359 352 352 353 356 356 354 353 354 360 359 360 359 358 358 358 358 357 358 358 357 358
355 358 358 360 360 361 361 360 361 361 360 362 364 362 363 363 362 361 362 362 362 362 362 362 362 362 362 362 362 362 362 361 361 361 360 361 361 360 361 361 361 361 362 361 362 361 361 361 362 362 362 363 362 361 361 362 362 361 360 361 361 362 362 360 352 354 355 359 354 357 356 360 360 359 360 359 358 358 358 358 357 357 358 358 358
356 357 359 359 359 359 359 359 360 359 359 358 358 361 362 362 362 362 362 362 362 362 362 362 362 362 363 363 362 362 362 361 361 361 362 362 361 362 361 362 361 361 361 361 360 361 361 361 362 362 363 363 361 362 360 359 361 361 359 359 360 362 363 358 353 354 356 355 353 354 355 360 359 359 359 359 358 358 358 358 358 358 358 358 357
353 356 357 358 358 357 358 358 358 358 358 358 358 358 360 361 361 362 363 363 363 362 361 363 362 362 363 364 363 361 361 359 362 359 361 362 362 360 361 361 361 360 360 360 361 361 361 361 362 362 362 362 361 361 361 361 360 359 360 361 362 363 352 351 352 353 354 355 357 353 360 360 359 358 359 358 358 358 358 359 358 357 357 357 357
351 352 353 355 357 357 357 357 358 358 358 357 357 357 359 362 361 362 363 363 363 363 361 364 363 363 362 363 363 357 356 357 358 357 362 360 361 362 362 363 361 361 360 360 361 361 361 362 363 363 362 362 362 361 359 360 360 360 360 361 362 352 351 352 353 355 355 356 358 355 361 360 359 359 359 358 358 358 358 358 358 357 357 357 356
345 347 350 354 356 356 356 357 357 357 357 357 359 360 359 361 357 359 360 359 362 361 360 359 362 359 363 360 357 359 354 354 358 363 360 361 360 362 362 362 361 361 362 361 361 362 362 362 363 364 363 363 361 357 359 363 362 361 361 361 351 351 352 352 353 353 354 353 356 358 360 359 359 359 359 359 358 359 358 358 358 357 357 357 357
343 346 347 354 355 355 357 357 356 356 356 356 358 360 357 356 356 357 360 360 360 362 360 359 355 356 356 358 359 356 355 356 356 360 362 362 360 362 363 362 362 362 362 362 362 363 363 363 363 363 363 362 357 351 351 352 357 362 362 351 350 352 352 352 352 353 353 353 352 360 360 359 359 359 360 359 359 359 358 358 358 357 357 356 356
343 345 347 353 353 353 356 357 356 356 355 355 357 355 355 355 355 356 357 358 358 359 357 356 356 355 356 356 356 357 355 354 361 362 361 356 357 363 363 363 363 363 363 363 361 362 362 363 364 364 366 361 350 351 352 351 352 353 348 348 350 351 352 352 352 352 353 357 354 361 360 359 359 360 359 359 359 359 359 358 357 357 357 357 356
344 346 349 350 351 353 355 355 356 356 355 356 356 354 355 354 354 355 356 356 356 356 356 356 357 356 356 356 357 357 355 354 354 354 353 355 354 355 355 355 355 356 362 351 353 355 355 351 352 358 352 355 354 353 350 350 353 354 349 347 350 351 351 352 352 351 351 352 357 361 360 360 359 360 360 360 360 360 359 358 357 357 357 357 357
348 346 347 349 350 353 355 355 356 355 356 355 354 357 357 353 353 354 355 355 356 356 355 356 357 355 355 357 358 354 354 353 352 352 353 353 353 352 353 353 352 354 358 351 350 349 350 350 350 351 352 354 355 355 353 354 351 353 350 347 349 350 351 351 352 351 352 352 358 361 361 360 360 360 360 360 360 359 359 358 358 357 357 357 357
348 347 349 350 351 353 354 355 354 355 356 356 356 358 354 354 354 356 354 354 356 356 356 357 357 355 356 358 354 352 351 351 351 351 352 354 354 352 351 352 351 351 356 351 350 353 351 350 350 351 351 353 354 354 354 351 350 352 349 347 348 349 351 351 351 352 351 353 359 361 360 360 360 360 360 360 360 360 359 358 358 357 357 357 357
348 349 350 351 352 353 354 354 354 355 355 356 357 356 355 355 356 360 356 359 358 357 356 358 358 356 356 358 358 353 351 350 350 351 352 353 352 351 351 354 352 352 356 354 352 352 352 353 353 352 353 353 352 353 354 352 348 349 348 347 347 349 350 351 351 351 352 353 356 361 361 360 360 360 359 360 360 359 359 359 358 357 357 356 357
348 349 350 351 352 354 354 354 355 355 356 357 356 356 355 356 358 355 353 361 357 358 357 358 356 356 356 356 357 353 352 351 350 352 351 351 351 350 352 352 352 353 353 353 353 353 352 353 354 355 354 355 354 354 353 351 345 346 347 346 347 349 350 350 350 351 352 351 353 358 361 360 360 360 358 359 359 358 358 357 357 357 357 356 356
349 350 350 350 353 355 354 354 356 355 357 357 355 354 354 354 355 355 354 360 357 357 358 356 355 354 353 354 356 354 353 352 351 351 350 349 350 350 351 353 354 354 354 351 354 355 353 353 354 354 356 355 355 355 354 349 343 344 346 346 347 349 350 350 351 351 352 352 352 358 362 361 360 360 359 359 359 358 358 357 358 357 357 357 357
350 350 350 350 354 354 354 355 355 359 357 355 354 353 354 353 355 354 356 358 357 356 358 355 354 353 352 353 354 355 353 352 352 351 349 349 349 349 351 352 351 353 353 353 355 355 355 355 355 354 354 352 352 351 349 342 342 344 347 346 347 348 349 350 351 352 352 352 352 353 359 361 360 360 359 359 359 359 359 358 359 358 357 357 357
348 349 349 350 353 353 354 355 356 357 356 355 356 352 352 354 354 352 355 356 357 354 354 352 356 353 353 351 352 354 356 351 352 351 350 348 349 349 351 350 350 351 352 352 353 354 355 355 356 357 359 355 353 352 345 341 341 343 344 345 347 347 348 349 351 352 352 352 351 352 355 358 361 361 360 360 359 359 358 359 358 358 359 358 359
349 349 349 350 352 353 354 354 356 357 354 353 353 352 352 355 353 352 356 355 354 355 352 351 351 352 352 351 351 353 355 351 351 353 355 349 350 349 351 352 352 351 352 353 354 353 353 355 356 361 356 352 351 351 353 343 341 342 343 344 346 346 347 348 349 351 351 352 352 352 353 356 355 362 361 361 360 360 359 359 359 360 359 359 359
347 348 348 350 353 354 355 355 356 354 353 353 351 350 351 355 355 353 357 352 352 352 352 350 351 351 351 351 351 353 352 351 352 352 351 349 349 348 349 350 352 351 352 354 353 353 355 356 353 350 358 351 349 350 346 345 344 343 343 343 344 345 346 347 348 349 350 351 352 352 353 353 353 352 356 362 361 361 361 360 361 360 360 360 360
346 345 346 349 352 352 354 355 356 353 356 353 351 350 351 355 354 354 353 351 351 350 351 351 350 349 350 350 352 355 352 352 353 352 351 350 349 348 349 350 352 353 352 353 354 356 357 356 356 350 351 347 348 352 348 347 344 343 343 344 343 344 346 346 347 347 348 349 350 351 352 353 352 353 354 352 362 361 362 361 362 361 361 361 361
344 344 346 348 350 352 356 354 354 352 353 353 351 350 351 353 353 357 351 352 350 349 351 351 350 350 351 350 352 354 352 352 353 351 350 349 350 348 348 350 353 353 352 354 357 358 355 357 358 354 346 346 350 346 348 348 346 344 343 344 344 347 343 344 346 346 347 348 348 349 351 351 353 353 358 353 352 357 361 362 362 361 362 362 362
344 344 344 347 349 352 355 353 352 351 352 354 351 351 351 351 350 355 351 351 348 348 351 352 351 352 350 349 352 355 351 352 353 352 349 349 350 350 350 350 356 354 354 357 359 359 355 359 354 359 349 347 350 347 345 347 346 345 346 345 344 349 342 343 346 347 349 347 347 349 349 350 353 360 355 354 353 353 358 362 362 363 363 363 363
344 344 345 347 348 351 352 353 352 353 353 353 352 351 350 350 351 352 354 350 348 350 353 353 352 353 350 349 352 354 353 352 353 353 350 350 350 350 352 353 357 357 358 360 357 357 357 356 351 357 356 351 346 345 343 346 345 347 345 345 346 348 343 342 345 356 348 348 348 349 349 350 352 354 355 355 354 353 353 358 362 364 364 364 364
343 343 345 347 348 350 353 354 352 353 353 353 352 351 349 349 350 351 350 348 349 350 352 352 354 353 351 351 353 354 355 352 352 354 351 352 352 350 354 359 362 360 359 356 354 356 359 355 356 353 359 354 348 349 346 345 347 345 344 343 346 345 344 344 348 348 347 349 350 353 353 352 353 353 354 354 353 352 351 351 352 357 360 365 366
342 344 345 345 348 350 351 352 351 352 352 352 351 347 347 347 346 348 347 348 346 350 351 354 356 355 354 353 353 353 354 354 353 352 353 355 352 352 357 360 359 357 354 354 354 352 351 352 352 355 352 355 361 357 349 351 343 342 347 343 344 345 346 349 347 345 347 346 349 353 351 352 353 354 355 356 354 353 351 350 355 352 355 358 363
342 343 343 345 348 349 350 348 350 352 351 348 346 345 344 345 346 346 345 347 348 351 353 355 357 358 357 355 355 354 355 356 356 354 353 361 358 356 357 358 359 357 354 352 356 357 357 356 357 361 354 350 352 353 347 341 340 337 335 341 339 343 354 355 344 343 345 343 342 348 347 348 350 353 355 357 355 354 353 351 349 350 350 351 354
341 342 342 345 347 349 348 349 351 350 350 348 347 346 348 346 345 346 347 348 351 350 352 355 358 362 360 358 358 357 357 359 363 359 361 361 358 358 359 357 358 356 355 360 359 365 361 355 354 347 351 351 348 353 350 339 336 332 333 335 336 337 343 352 347 343 343 342 340 344 343 343 344 348 352 355 355 354 353 351 350 349 349 350 350
341 341 342 345 346 348 348 350 350 350 350 351 347 347 350 352 349 349 349 349 351 352 355 358 361 360 361 361 361 360 361 362 362 363 362 362 359 358 358 358 359 359 357 354 356 356 355 354 354 350 349 352 357 355 346 340 336 339 339 333 327 330 336 336 339 342 342 340 339 341 343 341 341 342 346 351 353 354 354 353 351 351 350 350 351
341 340 342 344 346 348 348 350 350 350 351 353 352 350 353 352 352 352 353 351 350 357 358 358 358 359 360 362 361 362 363 363 363 363 362 362 360 358 359 359 359 360 356 353 353 353 353 355 355 359 354 345 345 344 355 348 342 336 332 330 328 330 324 327 331 336 340 339 337 339 343 341 339 339 341 346 350 352 352 353 352 353 353 353 354
340 339 342 345 346 347 349 350 350 350 351 357 352 351 354 350 353 354 356 352 352 352 353 354 356 359 360 359 359 361 362 363 362 361 363 359 359 359 358 359 361 360 359 355 354 355 355 355 355 356 352 347 345 347 353 349 345 339 340 336 327 326 326 328 335 333 342 335 334 337 343 340 337 337 340 343 347 350 351 349 350 353 355 355 355
339 340 343 345 346 347 350 350 351 351 351 354 353 352 355 349 350 348 346 346 345 347 348 350 352 355 356 359 360 362 362 362 361 361 363 363 360 360 359 358 360 359 359 358 357 357 354 353 355 354 353 354 346 346 346 353 353 354 347 337 332 329 329 333 328 326 334 348 339 334 338 340 336 338 338 339 340 344 349 347 347 350 353 354 354
339 340 342 345 346 348 350 350 350 351 351 353 354 353 352 350 349 348 348 347 345 347 350 354 354 355 358 357 358 360 360 361 362 361 363 363 360 359 360 360 360 359 364 358 357 358 356 354 358 354 352 360 350 344 346 348 347 349 356 352 350 355 341 333 329 334 325 329 334 331 335 337 335 336 337 337 338 340 344 347 346 348 349 350 350
340 339 341 345 345 348 349 349 351 352 351 352 354 353 351 350 349 349 350 349 348 348 351 352 355 356 356 357 357 358 360 360 360 359 362 363 361 359 359 360 359 361 363 360 357 356 357 359 361 358 359 357 350 347 348 349 340 343 355 353 352 352 344 344 336 332 326 327 328 333 333 334 335 337 338 338 338 339 340 345 346 346 347 349 351
340 339 340 345 345 348 349 349 350 351 351 351 354 353 353 351 350 350 350 351 350 351 354 355 353 357 354 355 355 356 357 358 359 361 361 362 365 362 360 360 359 359 365 362 357 359 358 358 358 356 355 357 354 352 350 348 349 346 347 344 347 347 346 344 338 343 337 328 328 329 328 332 335 333 337 338 337 338 342 344 347 349 351 352 351
341 342 342 346 346 348 349 348 349 350 351 351 355 354 354 354 351 350 350 350 353 352 353 351 351 353 353 354 354 354 356 357 359 360 361 362 363 363 362 360 358 358 364 357 358 358 358 357 358 357 355 357 358 355 351 350 352 352 352 346 342 341 340 342 337 336 336 332 330 331 332 327 326 329 336 336 335 338 341 344 348 352 350 350 350
340 341 343 346 346 347 349 347 348 350 351 351 354 353 354 353 352 351 351 350 351 351 350 349 350 350 351 352 352 353 354 357 359 360 361 362 362 364 363 360 359 362 361 357 356 356 359 358 359 359 358 356 356 358 357 357 356 352 352 351 346 344 339 339 336 336 336 332 331 331 336 336 328 328 333 338 338 336 338 340 344 349 349 349 350
Wind_Speed
3 5 3 10 10 11 11 10 10 12 13 13 13 13 12 12 12 12 12 12 12 12 13 13 13 13 13 13 12 12 11 11 11 12 10 11 11 12 12 12 13 14 16 15 15 14 14 14 15 14 15 19 19 16 14 13 17 17 17 18 18 17 16 16 16 16 17 17 17 15 14 15 15 15 15 16 16 16 16 15 13 9 7 11 16
7 4 3 6 10 11 11 10 10 12 12 12 13 12 12 12 12 12 12 12 13 13 13 13 13 13 13 13 13 12 12 12 11 11 10 10 11 12 13 12 13 14 15 15 14 14 14 14 14 14 15 16 18 18 17 15 17 17 18 18 18 17 16 16 16 16 16 15 15 15 16 16 15 15 15 16 16 16 16 15 15 7 5 13 16
6 5 3 6 10 11 10 11 11 12 12 12 12 12 12 12 12 12 12 12 13 12 13 13 12 13 13 13 13 13 14 12 11 11 11 10 9 10 12 12 13 14 14 14 14 15 14 14 14 14 15 16 17 17 17 16 16 16 18 18 18 17 16 16 16 16 16 16 15 15 16 17 16 15 15 15 16 16 16 16 14 12 9 15 15
8 4 3 8 12 9 10 11 11 11 12 11 12 11 11 12 12 12 12 12 12 12 12 12 12 12 12 13 13 14 14 12 11 11 11 11 10 9 10 11 11 13 14 14 14 15 15 14 14 14 14 15 15 17 17 17 16 18 18 18 19 18 16 16 16 16 16 15 14 11 5 7 9 14 15 16 16 17 16 15 15 15 15 15 15
7 5 4 5 6 7 10 10 11 11 12 11 11 11 11 12 12 12 12 12 12 12 12 12 12 12 12 12 13 14 14 13 12 11 11 9 9 11 11 11 10 12 14 13 13 14 14 14 13 13 14 15 16 15 16 15 17 17 17 17 16 18 16 15 16 16 16 15 13 8 6 6 6 14 14 17 16 16 16 15 15 15 15 16 15
7 6 5 5 5 6 9 10 12 12 12 11 11 11 11 11 12 12 11 11 11 11 11 12 12 11 11 12 12 13 14 14 13 12 12 11 11 12 12 10 10 12 13 13 14 14 12 13 13 14 15 15 16 15 15 14 17 16 16 15 16 16 16 16 16 16 16 14 12 5 5 5 5 6 16 14 16 15 16 16 15 15 15 16 16
9 6 5 5 4 6 9 10 12 12 11 11 11 11 11 11 11 11 11 11 11 11 11 11 11 11 11 11 12 13 14 14 13 13 11 11 12 12 12 10 9 11 14 12 13 13 12 13 14 14 15 15 14 16 16 13 13 15 15 15 15 15 15 15 15 15 13 8 5 5 4 3 3 4 15 15 15 16 15 15 15 15 14 14 15
7 6 5 4 4 8 8 9 11 11 11 11 11 11 11 11 11 11 11 11 11 11 11 11 11 12 11 11 11 13 14 14 13 12 13 12 13 13 11 10 11 13 11 13 12 12 13 14 14 14 16 15 14 16 15 15 14 13 14 14 14 15 14 15 16 14 12 6 5 5 5 4 3 4 12 15 13 14 14 14 14 15 15 15 14
7 6 6 5 5 10 9 11 11 11 11 11 11 11 11 11 12 12 12 12 12 12 11 11 11 11 10 10 11 14 13 13 12 11 13 13 14 15 12 10 11 13 11 10 12 11 12 14 15 13 15 17 16 14 14 15 13 12 11 13 14 14 15 15 15 13 7 4 4 4 5 4 4 5 11 15 13 13 13 12 13 15 15 15 14
7 6 6 4 4 11 11 11 11 11 12 11 11 11 11 11 12 11 11 11 12 13 10 12 13 11 11 10 10 11 14 16 14 11 12 13 13 17 17 13 12 14 12 11 11 11 14 15 15 15 15 15 16 15 14 14 14 12 11 11 12 15 15 15 14 9 5 5 5 4 4 6 3 4 11 13 13 14 13 12 10 11 11 14 14
8 7 5 5 6 12 12 12 11 11 11 12 12 11 11 11 11 12 11 12 12 14 12 12 11 12 12 11 11 11 12 13 14 13 12 11 12 16 19 16 12 14 14 14 13 13 15 14 17 15 16 16 15 15 14 14 12 11 11 12 13 15 15 14 10 5 4 4 4 4 7 9 3 5 12 13 14 13 13 13 14 14 14 14 13
8 6 5 4 10 12 11 12 11 11 11 12 11 11 11 11 11 11 12 11 10 12 12 12 12 11 11 11 11 11 12 12 13 12 12 11 11 14 20 17 14 14 15 12 11 14 15 15 16 15 15 14 14 14 15 14 13 11 9 9 12 15 16 15 7 6 5 4 5 4 3 4 4 9 15 13 13 14 13 14 14 14 13 13 12
9 7 6 5 5 11 12 12 12 11 11 11 11 11 11 11 12 12 14 12 11 12 12 12 11 11 11 11 11 11 11 12 12 12 11 11 10 12 17 19 15 15 16 14 13 14 16 16 15 13 13 13 13 13 14 14 13 10 8 7 12 15 15 13 6 6 5 4 4 4 3 3 4 10 14 14 14 13 13 13 13 13 13 12 11
10 8 6 5 4 12 13 12 12 12 12 11 11 10 11 11 11 12 14 13 12 12 13 12 12 11 10 10 10 11 11 12 12 12 12 11 11 11 15 17 17 17 17 14 13 14 15 15 14 13 12 12 11 10 10 12 12 11 8 10 13 16 16 11 9 6 5 4 3 3 3 3 4 9 12 13 13 13 13 13 12 12 12 11 11
11 10 7 5 4 6 13 11 11 12 11 11 11 10 11 11 11 12 13 13 13 12 13 13 12 11 11 11 11 11 11 13 13 11 11 12 12 12 13 16 17 17 17 14 13 14 15 15 14 13 12 11 9 8 11 11 12 11 11 13 15 15 14 6 6 4 4 3 3 3 3 3 9 10 13 13 13 12 12 12 12 12 11 10 10
11 11 9 5 5 5 5 10 12 12 12 11 10 11 10 11 13 12 13 12 12 13 13 13 12 11 11 11 11 12 12 12 14 13 11 11 12 12 13 14 16 17 17 15 14 14 14 14 14 14 13 11 9 11 13 13 12 12 12 14 16 16 15 8 5 4 4 3 3 3 3 3 10 11 12 13 13 12 12 12 12 11 10 10 10
11 9 8 7 6 5 5 5 8 13 12 11 11 11 11 11 12 12 12 12 13 12 13 13 12 12 11 11 11 12 12 12 12 13 13 12 12 13 14 15 15 17 17 16 14 14 14 14 14 13 12 11 10 12 14 14 13 13 14 14 15 16 15 11 5 4 4 3 3 2 2 3 8 10 12 12 12 11 11 11 11 10 9 9 10
9 8 7 7 6 6 5 5 6 5 5 8 11 11 11 11 11 12 13 12 13 12 12 12 12 12 11 11 11 11 12 12 13 12 13 12 12 12 13 13 14 16 15 16 15 15 14 13 13 11 11 10 11 12 13 13 14 12 11 13 15 16 15 11 5 4 3 4 3 2 2 6 9 11 12 11 11 11 10 10 9 9 9 9 9
8 7 7 6 6 6 5 5 4 3 4 3 3 7 11 11 11 12 12 12 12 12 12 12 11 11 12 11 11 11 11 12 13 13 12 13 13 12 13 13 14 15 15 15 14 13 13 13 12 10 9 9 11 13 13 14 14 13 12 12 14 15 15 7 4 4 3 3 2 3 3 8 8 10 11 10 10 10 10 9 9 9 9 8 8
7 7 7 5 5 5 5 5 4 4 4 3 3 3 9 11 11 12 12 12 12 12 13 13 10 8 11 11 11 8 9 8 13 10 12 13 12 10 12 13 13 14 14 14 13 13 12 12 11 10 9 9 11 11 12 12 10 11 12 13 14 13 7 5 4 4 4 3 3 2 6 9 10 9 10 10 10 9 9 9 9 8 8 8 7
6 7 6 6 5 6 5 5 4 5 4 3 2 3 6 10 9 11 12 12 12 12 13 13 10 9 9 10 8 4 4 3 4 4 10 7 11 12 12 13 12 13 13 12 12 12 11 10 9 9 9 8 8 10 10 10 10 10 12 13 12 6 5 5 4 3 3 2 3 3 7 9 9 9 9 9 9 8 8 8 8 8 8 7 7
7 6 6 6 6 5 5 6 5 5 4 3 2 2 4 5 3 3 4 7 8 11 7 4 7 3 8 6 3 3 3 3 3 5 3 6 8 12 12 12 12 12 12 11 10 10 10 9 9 8 8 8 8 3 4 6 9 10 11 12 7 5 5 5 4 4 2 2 2 5 8 8 8 8 9 8 8 8 8 7 7 7 7 6 6
7 6 6 8 7 5 5 6 6 5 5 3 3 3 3 3 3 3 3 6 6 4 4 5 2 2 2 3 3 3 2 2 2 4 4 9 8 12 12 12 12 12 11 10 9 9 8 8 8 8 8 8 3 2 2 2 3 9 8 5 5 5 4 4 4 3 3 2 2 7 8 8 8 8 8 8 8 7 7 6 6 6 6 5 5
9 7 8 7 8 6 7 6 6 6 5 4 3 4 3 2 2 3 4 4 3 3 4 3 2 2 2 3 3 2 2 2 7 9 7 3 6 10 12 11 11 11 10 5 7 7 7 7 7 7 5 3 1 1 1 1 2 4 3 4 5 5 5 4 4 3 3 2 2 8 7 8 8 8 8 7 7 7 6 5 5 5 5 5 4
7 7 7 8 8 7 7 6 7 6 5 5 5 4 4 3 2 3 3 4 4 3 3 3 3 3 2 3 3 3 3 3 4 3 4 4 4 4 4 4 4 3 6 3 3 2 3 2 1 2 2 1 2 1 1 0 2 3 3 3 5 4 4 4 4 3 2 2 3 8 8 7 7 7 7 7 6 6 5 5 4 4 4 4 3
7 8 9 8 8 8 7 6 7 5 5 5 5 5 6 4 3 3 3 4 4 3 2 3 3 2 2 2 3 4 3 3 2 3 3 4 4 4 4 3 2 2 2 2 1 2 1 2 1 1 2 2 2 2 1 0 1 3 3 3 3 3 4 4 4 3 3 2 3 8 7 7 7 7 7 6 6 5 5 4 4 4 4 3 3
8 8 8 7 8 8 8 7 6 5 5 4 5 4 5 4 4 3 3 3 4 4 3 3 3 2 2 2 3 3 3 2 2 3 3 3 4 4 3 1 2 2 1 2 1 0 0 1 0 1 2 2 3 3 2 1 2 2 3 3 2 3 4 4 4 4 3 3 4 8 7 7 7 7 6 6 5 5 4 3 4 4 3 3 3
8 8 8 7 8 9 8 7 6 6 5 5 5 5 4 5 5 5 3 4 4 4 3 4 3 2 2 2 2 3 3 2 2 3 2 3 2 2 2 2 1 1 1 1 2 0 0 0 0 2 2 3 4 4 3 2 2 3 3 3 3 3 4 4 4 4 4 4 3 6 7 7 7 6 7 6 5 5 4 5 4 4 4 3 3
9 9 8 8 8 8 8 7 7 7 6 6 5 4 5 5 4 4 4 4 3 4 4 4 4 2 2 2 2 4 3 2 2 2 2 2 2 2 2 1 1 0 1 1 1 0 0 1 1 2 2 4 4 5 5 4 3 4 5 5 4 4 4 4 5 5 4 4 2 5 8 8 7 7 7 6 6 6 6 6 5 4 4 4 3
10 9 9 7 8 8 9 8 7 7 7 6 4 5 5 5 5 5 4 3 2 3 3 4 4 3 2 2 2 3 3 3 2 1 2 1 1 2 1 0 1 0 0 1 0 0 2 2 3 2 4 4 5 6 5 5 5 6 6 6 5 5 5 5 5 5 4 4 3 4 9 8 8 8 8 7 7 6 7 6 6 5 5 4 4
10 10 9 8 8 9 9 8 7 6 6 6 5 5 4 5 5 5 4 4 3 2 3 4 4 3 3 2 3 2 3 2 2 2 2 1 1 2 1 1 1 2 1 2 1 2 3 3 3 4 4 5 6 7 6 4 5 6 7 7 6 5 4 4 4 4 4 5 5 4 4 10 9 9 8 8 7 7 7 6 7 6 6 6 6
11 11 9 7 10 10 9 8 7 7 6 6 5 5 5 5 5 5 4 4 3 3 4 4 4 3 2 2 3 3 2 2 2 2 2 2 2 2 1 2 2 2 2 2 2 2 2 3 4 4 4 3 3 1 4 5 6 6 6 7 6 5 5 4 5 5 4 4 4 5 4 5 10 10 9 9 9 8 8 7 7 7 7 7 7
9 11 10 10 11 10 9 8 8 7 7 7 6 6 5 4 5 5 4 4 4 3 4 4 4 4 3 2 2 2 2 4 3 3 2 2 2 2 1 1 2 2 2 1 2 2 3 4 5 5 5 1 4 3 1 2 5 5 5 5 6 5 5 5 4 5 5 5 5 4 4 4 3 9 10 10 10 9 9 8 8 8 8 8 8
9 8 10 11 9 7 7 7 8 8 7 6 5 5 5 4 4 5 4 5 4 4 4 4 4 4 4 4 3 2 3 4 4 3 3 3 2 2 1 2 2 1 1 1 3 3 4 3 3 2 3 3 3 1 2 3 2 2 4 5 5 5 5 5 5 5 5 5 5 5 5 4 4 3 3 9 10 10 10 9 9 9 9 9 9
7 9 11 12 10 9 8 7 7 8 7 6 6 6 5 4 5 5 5 5 5 4 4 4 4 4 4 4 4 3 3 4 4 4 3 3 3 2 2 3 2 1 2 2 3 3 3 4 3 2 2 2 2 1 2 0 2 5 6 5 6 6 5 6 5 5 5 4 4 5 4 4 4 4 4 3 6 9 10 10 10 10 10 10 10
9 10 11 11 11 10 9 8 8 8 7 7 7 6 6 5 4 5 5 5 5 5 4 4 4 4 4 4 3 3 3 3 4 3 3 2 2 2 3 2 2 2 3 3 2 3 3 3 2 1 1 2 2 2 2 1 1 4 4 5 4 5 6 5 6 5 5 4 4 5 4 4 4 5 5 5 5 5 10 11 11 11 11 12 12
10 10 10 10 11 11 10 10 10 9 7 7 6 5 5 5 4 5 6 6 5 5 4 5 5 4 4 4 4 4 4 4 3 2 3 2 2 2 3 3 3 3 3 3 3 3 2 3 3 1 2 1 2 2 4 3 2 4 3 4 3 5 7 6 6 6 5 5 5 4 4 5 4 6 5 5 4 5 7 11 12 12 13 13 12
11 11 9 11 11 10 10 10 9 9 7 7 6 6 5 5 5 5 5 6 6 5 4 5 5 5 5 5 5 3 3 3 3 2 2 3 3 3 3 4 4 4 4 3 3 1 1 1 2 2 0 1 1 2 3 3 3 2 1 1 1 4 6 6 6 5 5 6 5 5 6 5 5 5 5 5 5 5 5 7 12 13 13 13 12
10 10 9 9 8 8 9 9 10 9 8 7 6 6 6 6 6 6 5 5 5 5 5 5 5 5 5 6 4 3 3 3 3 3 3 3 3 4 4 4 4 4 2 0 0 1 1 1 1 3 2 2 2 2 4 2 2 1 1 2 2 2 3 6 6 6 6 6 6 6 4 5 5 5 5 5 5 4 5 5 5 5 7 12 13
10 10 10 8 8 8 7 7 9 8 6 6 6 6 6 7 6 6 5 5 6 6 6 6 6 5 5 5 5 4 3 3 4 4 3 3 4 4 4 2 3 2 1 1 1 1 3 2 2 2 2 2 2 2 0 2 1 0 1 3 2 1 2 1 3 5 5 4 5 4 5 4 5 5 5 6 5 5 5 5 5 5 5 7 12
11 11 10 9 10 9 8 8 7 7 7 6 6 6 5 4 2 5 6 6 6 6 6 5 6 6 7 6 5 5 5 5 5 5 5 5 5 3 3 1 1 1 1 2 2 2 2 2 1 0 0 1 1 1 1 2 4 1 3 2 3 3 3 2 3 4 5 5 4 5 5 4 6 5 6 5 5 5 5 5 5 5 5 5 6
11 12 11 11 10 10 9 7 6 7 6 6 6 5 3 3 2 3 4 5 6 6 5 5 5 6 6 6 5 5 5 4 4 4 4 4 3 3 3 3 2 1 1 1 2 2 2 2 1 2 1 0 1 1 1 3 2 3 1 2 3 5 4 3 3 4 4 4 6 6 5 6 6 6 5 5 5 6 6 5 5 5 5 5 6
13 13 11 11 10 10 8 7 7 7 6 6 6 5 2 2 2 1 4 3 2 5 6 6 5 6 6 6 5 5 4 3 3 3 3 3 4 3 3 3 3 2 1 1 2 3 3 3 2 0 3 1 1 1 1 1 1 2 1 2 2 1 4 3 3 4 5 5 5 6 7 6 7 6 6 5 6 6 6 5 5 5 6 6 6
12 10 10 11 10 9 8 8 8 7 6 5 5 3 3 3 2 4 3 3 3 3 4 5 5 5 4 5 5 5 4 4 3 3 2 2 4 4 3 3 2 2 2 2 1 2 2 3 2 1 0 2 2 1 1 0 2 4 1 1 1 1 3 4 4 6 3 4 6 6 5 7 6 5 4 6 7 6 6 5 6 6 6 6 6
11 11 10 10 8 11 9 10 8 8 6 6 6 4 3 3 3 4 5 5 4 4 4 4 4 4 4 4 4 4 4 4 3 2 2 2 2 2 3 2 1 1 2 2 2 2 2 2 2 1 1 0 2 1 1 1 0 4 4 1 2 1 2 4 2 4 1 1 4 6 5 6 6 5 6 8 6 7 6 5 5 5 6 6 6
12 11 11 10 10 10 9 8 8 8 7 6 6 5 4 5 5 5 5 4 3 3 4 5 3 4 5 2 3 3 3 3 3 2 1 1 1 1 1 1 1 1 1 1 1 2 3 3 2 2 1 0 0 2 1 1 1 2 2 3 3 2 1 2 1 2 4 2 3 5 6 6 5 6 5 5 6 6 5 6 4 6 6 6 6
11 10 10 10 11 10 9 9 8 8 8 6 6 5 5 5 6 6 6 7 7 4 3 3 5 3 3 3 4 3 3 3 2 2 1 1 1 1 1 1 1 2 1 1 2 3 3 3 1 1 1 1 1 0 1 2 4 0 2 2 2 1 2 1 2 0 1 2 1 2 4 4 5 5 6 6 5 5 6 5 5 6 5 5 5
11 11 10 10 11 11 10 9 8 8 7 7 5 6 6 6 6 5 6 6 7 7 5 4 3 4 4 4 4 3 3 3 3 3 2 2 2 2 1 1 2 3 2 3 3 3 2 1 1 2 1 1 2 1 0 3 0 2 3 4 3 1 0 1 1 0 2 1 3 3 1 2 3 5 6 6 5 6 6 5 5 5 6 5 5
13 12 10 10 10 10 10 9 9 8 8 8 6 6 7 6 7 7 6 5 7 6 5 4 5 4 5 4 4 4 3 3 3 4 3 3 2 3 2 2 3 3 2 2 2 2 3 3 1 1 2 0 0 1 1 1 0 1 3 2 4 2 3 1 1 0 2 1 1 1 1 1 0 4 6 5 5 4 6 6 6 6 5 5 5
13 12 10 10 10 9 9 10 9 8 8 7 6 6 7 6 7 6 8 6 5 5 5 5 6 4 6 5 5 5 5 4 4 4 4 3 3 2 2 3 3 3 2 3 2 2 2 3 3 3 2 1 0 0 0 2 1 2 0 2 2 3 4 3 3 4 2 2 1 2 2 3 4 6 3 5 6 4 5 5 5 5 5 6 4
13 13 11 11 11 10 10 10 9 8 8 8 7 7 6 7 7 7 7 7 6 6 6 5 6 4 6 6 5 6 5 5 4 4 5 4 3 3 3 3 2 2 2 2 3 3 3 3 2 1 1 3 1 0 1 1 1 3 3 1 2 0 1 1 3 2 1 1 3 3 2 1 3 4 4 5 7 5 4 4 5 6 6 6 5
Wind_Direction
200 169 181 158 151 146 139 132 124 117 114 112 110 108 108 109 110 108 107 106 105 105 107 107 108 107 108 107 106 106 107 102 87 80 84 93 99 104 104 106 106 105 104 103 103 101 102 101 102 103 107 111 113 116 118 120 113 113 113 107 101 100 102 106 109 110 111 108 105 106 103 100 97 97 99 101 101 97 89 84 83 85 86 88 88
160 172 162 156 157 145 139 136 126 118 117 114 111 111 111 111 109 110 109 109 107 109 111 111 113 112 110 108 108 108 107 102 101 106 107 100 100 106 110 111 110 108 106 106 104 104 103 103 103 105 106 108 110 121 121 115 111 106 102 101 98 101 105 108 110 112 110 106 102 98 96 94 97 95 97 99 99 93 91 91 87 81 86 92 90
136 148 162 159 154 148 143 137 128 122 119 115 113 113 115 113 113 113 114 112 112 113 111 113 112 112 111 113 113 112 105 106 114 121 112 102 99 109 112 115 115 112 111 109 108 106 106 106 105 105 107 109 120 113 113 110 105 105 99 98 102 103 104 107 108 105 102 98 97 93 93 94 93 99 101 101 98 95 96 95 94 90 91 90 88
138 151 152 158 149 151 149 139 128 124 120 120 118 118 117 117 114 112 112 112 112 111 112 112 113 114 114 115 116 114 114 118 120 115 109 113 118 116 114 113 118 116 113 112 112 111 110 109 108 109 109 109 106 110 111 111 114 103 102 103 103 102 104 104 102 100 96 89 77 63 55 74 93 100 105 103 100 95 96 97 99 98 95 92 91
137 143 151 149 146 156 153 141 132 129 128 126 123 122 121 118 116 114 114 115 115 116 117 117 116 113 115 116 116 114 118 121 123 123 121 125 134 125 119 122 127 118 114 114 114 114 110 107 108 110 110 106 105 104 105 112 110 106 106 104 102 106 106 104 101 98 93 86 79 68 71 81 85 103 106 97 93 95 96 96 96 95 93 90 88
139 141 146 144 150 160 160 147 136 135 132 126 123 122 119 117 116 117 117 118 119 117 116 113 112 113 112 114 115 116 120 124 125 128 133 141 135 128 126 127 124 122 115 113 112 104 102 108 112 114 108 107 108 106 111 115 111 108 107 104 99 100 102 103 103 99 93 86 79 66 66 81 94 96 99 107 107 101 100 99 94 92 90 88 86
135 143 146 143 150 167 169 148 138 137 131 126 124 122 120 119 120 118 118 118 117 115 114 113 113 109 110 110 116 120 122 123 123 127 131 132 130 132 126 120 123 113 105 107 107 111 115 113 111 111 112 108 111 112 109 109 102 107 107 104 102 100 100 98 95 89 84 75 65 63 58 62 65 86 103 102 100 100 99 97 97 94 91 89 87
135 141 139 133 146 162 164 142 142 135 130 129 126 125 124 123 120 119 118 116 114 113 113 115 115 111 112 115 120 120 126 127 129 133 133 137 137 129 118 128 122 109 104 116 117 119 117 116 115 123 118 118 114 115 116 116 114 107 104 105 104 104 103 101 97 91 81 71 69 69 62 54 59 79 96 91 91 95 97 98 96 94 92 90 87
136 132 126 129 147 153 152 142 142 135 132 132 129 128 127 124 121 121 120 117 113 114 113 112 111 115 116 116 121 127 129 122 125 141 140 142 132 122 120 111 109 108 124 120 120 121 120 119 123 123 119 117 115 114 118 117 112 108 102 105 108 107 108 106 98 90 76 66 72 71 71 68 76 99 107 107 106 99 96 95 95 95 93 91 90
130 128 128 129 142 147 146 145 140 137 135 131 131 130 126 120 117 117 119 117 117 108 114 120 123 125 126 133 132 125 123 130 136 144 143 140 137 129 129 129 122 122 127 129 128 127 121 123 123 119 112 117 120 120 118 117 115 111 107 104 111 114 112 106 101 92 83 81 88 97 102 96 88 94 105 108 106 105 98 98 103 98 95 93 92
130 130 130 132 147 147 149 143 139 137 135 134 131 126 120 117 118 121 125 123 121 121 127 124 124 125 128 126 120 120 122 127 137 136 140 142 139 127 122 120 123 124 129 127 125 122 122 124 121 120 118 117 116 116 118 117 115 115 110 104 110 111 108 102 92 83 81 81 77 73 86 89 86 96 102 104 108 104 102 100 97 94 93 93 94
128 127 129 141 149 149 147 142 141 139 137 133 127 122 120 123 126 127 117 108 114 120 121 118 118 116 117 116 113 118 121 131 125 135 135 134 133 127 116 125 133 129 124 123 123 125 124 123 121 119 118 117 115 115 119 122 122 120 110 108 115 108 101 97 88 85 80 74 75 70 64 82 88 110 110 110 107 106 103 99 94 95 95 94 93
130 130 134 147 144 151 145 144 143 140 135 130 126 125 126 129 129 127 119 122 126 123 120 120 119 116 114 114 115 115 116 118 119 122 127 128 129 128 121 125 134 127 127 134 131 126 126 124 121 118 115 114 114 115 120 122 123 121 115 117 120 111 106 99 91 87 81 77 74 76 81 86 97 108 111 112 110 105 98 98 97 97 95 94 96
133 135 137 138 154 150 148 145 143 139 137 132 129 130 132 130 129 127 127 129 127 125 121 119 115 113 110 111 112 115 116 117 117 119 127 130 130 120 118 124 131 131 128 129 128 128 126 124 123 122 118 114 114 116 124 126 126 124 125 126 118 117 108 101 96 93 93 91 94 90 88 96 104 108 109 109 108 104 104 101 100 97 96 100 100
138 138 140 148 159 146 147 142 141 141 137 132 131 135 135 132 131 128 129 128 126 122 120 119 116 114 114 113 113 112 115 116 115 114 118 124 123 121 122 123 129 130 128 132 130 128 128 126 127 127 124 117 109 121 136 138 131 125 123 121 117 111 103 93 93 96 98 99 94 99 102 112 112 111 110 111 110 108 105 103 100 98 99 101 100
135 139 144 154 143 148 133 146 147 141 136 135 136 137 135 135 131 131 128 127 124 123 122 121 118 116 114 112 111 110 111 112 117 124 130 128 124 125 122 124 126 128 132 134 133 133 133 131 132 130 123 111 97 109 120 129 127 125 127 124 116 112 107 101 97 98 100 102 105 101 106 110 112 111 109 108 108 108 106 102 100 101 103 102 99
137 142 143 142 136 124 138 146 149 144 139 137 142 138 137 136 131 129 128 128 126 125 123 121 120 118 118 117 112 110 110 114 116 121 124 125 126 124 125 125 130 131 133 133 138 139 136 133 130 126 121 109 98 106 116 125 129 131 131 127 122 117 114 110 110 112 120 119 114 111 113 101 114 111 107 106 109 109 106 103 104 109 110 104 99
140 142 138 134 133 139 144 147 139 135 136 140 142 141 137 134 133 133 131 130 128 127 126 123 122 121 121 118 115 113 114 116 117 120 121 122 122 122 121 124 127 126 129 135 138 138 134 129 125 124 121 114 110 108 119 120 123 129 129 125 124 121 119 116 117 126 125 124 115 133 118 117 114 112 109 112 111 110 109 110 113 114 111 106 99
136 137 134 139 143 145 138 128 132 120 111 118 137 142 138 136 138 134 134 133 129 128 126 121 114 124 123 120 117 115 112 115 119 119 120 121 120 121 123 124 127 129 135 136 134 129 128 128 127 127 124 119 116 113 115 126 131 137 138 132 128 125 120 113 118 123 117 123 151 133 131 122 116 113 117 119 117 114 115 118 117 114 109 104 100
140 142 144 148 148 139 130 129 123 121 125 129 149 137 140 138 140 137 137 134 130 129 125 117 121 120 120 118 115 107 106 110 113 115 119 119 121 124 123 122 124 128 132 131 132 131 131 129 129 131 128 122 119 118 121 117 121 131 125 122 123 113 105 115 121 123 136 148 154 143 126 122 121 122 124 123 123 119 121 122 120 115 109 105 101
144 152 152 154 148 140 139 130 130 130 131 132 127 137 139 139 138 138 137 137 134 131 125 128 129 123 118 114 95 57 54 62 77 100 111 117 122 121 121 122 123 126 127 130 130 130 130 134 135 134 131 125 121 121 117 112 119 130 131 125 109 105 119 121 126 135 146 154 131 115 117 123 128 131 131 130 128 131 130 128 124 117 111 107 103
154 156 159 152 146 151 149 144 139 141 141 137 135 118 128 123 103 118 118 126 125 117 119 118 128 120 119 101 88 86 68 65 70 91 86 112 118 122 122 124 125 126 128 132 135 137 140 145 142 137 135 131 125 85 113 116 118 125 123 106 104 122 129 127 130 141 145 137 112 121 122 130 136 138 139 137 138 139 138 130 123 120 115 112 111
161 161 156 152 157 156 155 156 154 149 145 142 133 104 101 94 104 108 111 115 117 116 103 111 89 105 100 102 87 88 91 82 83 108 107 123 122 123 126 126 127 126 128 132 138 142 144 145 147 141 141 133 100 119 105 120 109 121 110 99 114 127 125 128 136 146 145 124 98 132 136 140 144 146 145 146 145 142 139 133 129 126 127 125 120
164 163 155 154 160 163 164 164 160 154 148 145 124 109 109 97 109 105 99 111 124 105 109 111 101 99 92 83 86 83 96 147 128 116 105 63 111 121 123 124 125 129 126 118 131 139 141 149 152 148 112 67 95 178 131 59 63 78 102 115 116 130 132 137 141 144 132 127 130 140 145 150 150 151 152 152 148 145 141 143 140 139 141 138 129
162 148 149 160 164 163 162 164 155 155 151 150 138 132 129 123 129 126 116 111 114 111 110 99 95 84 87 87 89 89 80 67 70 70 67 81 65 50 47 47 53 68 81 63 43 59 63 55 32 46 18 30 12 6 15 5 90 102 122 134 127 132 133 132 131 123 113 106 149 151 157 157 159 160 157 159 159 153 149 145 148 154 153 151 144
148 150 159 159 163 159 161 156 154 157 157 150 144 151 145 147 143 151 126 118 123 128 116 97 96 95 95 97 93 95 70 64 69 76 84 90 80 76 68 58 49 61 69 66 59 69 58 63 66 43 350 346 344 322 323 191 183 131 138 149 140 134 134 131 127 122 118 137 169 164 165 165 168 171 168 167 167 165 156 159 167 170 161 155 155
155 153 153 155 153 155 156 158 158 148 151 145 145 143 151 152 147 144 132 143 137 129 137 111 114 120 93 108 116 104 84 73 89 95 94 88 92 94 89 80 108 88 95 133 154 107 89 99 40 337 325 329 312 303 284 232 177 167 157 168 153 142 138 139 134 134 150 173 177 173 173 176 177 179 180 180 179 175 174 178 191 189 173 179 171
143 151 153 149 154 158 158 162 153 148 149 155 151 144 150 143 155 155 133 172 136 139 140 130 128 114 119 126 122 114 112 107 99 100 87 87 99 98 93 80 72 78 66 107 159 356 74 47 348 301 299 291 287 280 278 263 180 193 162 176 171 155 147 144 145 151 165 181 197 179 185 184 188 189 191 185 188 189 193 200 203 208 206 201 196
146 155 157 151 157 158 162 160 153 149 152 155 153 147 145 143 128 127 159 170 118 147 139 133 133 140 122 124 138 126 119 120 125 102 69 86 93 85 76 85 70 28 43 16 84 5 318 305 295 272 258 267 263 269 259 235 180 192 183 175 174 165 162 155 155 164 172 185 181 195 190 194 194 199 201 196 197 196 203 209 214 212 214 222 215
155 156 159 160 157 158 167 166 158 154 153 147 150 150 153 143 137 146 178 155 130 125 122 134 145 145 158 133 144 142 151 154 153 103 101 90 83 89 84 88 125 285 160 233 224 178 240 273 267 277 265 258 261 255 246 242 181 183 180 174 172 178 177 159 164 173 176 173 189 211 197 200 202 205 209 209 212 209 214 213 216 214 223 221 227
156 159 162 164 159 162 170 166 156 152 150 146 154 158 158 156 156 153 171 148 151 133 118 132 144 152 165 161 153 163 156 154 137 132 100 93 108 149 178 164 164 211 207 213 234 215 244 243 242 241 247 230 231 238 219 197 175 162 172 169 176 171 165 160 162 169 178 187 191 210 211 204 208 212 214 215 221 223 219 221 222 222 224 227 228
164 165 166 161 160 168 168 162 156 152 151 150 153 161 175 170 157 158 163 142 149 148 140 142 147 149 158 177 165 165 161 146 130 122 134 142 184 192 218 164 192 213 208 233 247 261 250 258 257 252 263 243 203 179 179 168 158 162 161 171 170 165 160 168 174 175 187 197 198 204 208 214 213 214 217 221 222 226 229 228 233 233 233 237 237
168 165 161 157 163 166 163 162 153 152 154 159 164 172 172 169 158 169 153 142 158 153 154 149 147 149 159 180 186 172 152 148 148 151 152 175 181 223 273 251 222 212 240 264 291 278 267 255 251 236 218 202 48 29 135 179 159 169 173 174 167 166 163 169 183 175 190 194 205 209 211 215 223 219 219 225 228 228 231 233 236 239 238 242 245
164 164 158 160 160 162 160 161 153 154 159 156 161 170 175 171 165 162 153 148 163 168 167 144 145 147 159 178 179 184 146 152 151 149 159 172 186 206 279 289 287 269 279 274 273 265 269 268 276 348 12 37 11 3 119 175 212 175 192 170 168 172 165 177 187 188 182 197 199 204 210 219 223 237 243 230 232 235 234 236 239 242 245 248 249
158 163 163 158 159 159 162 161 158 157 160 157 169 179 174 181 166 160 155 158 159 176 172 141 140 156 164 175 173 170 159 155 152 154 168 171 180 207 256 268 290 248 262 260 265 288 290 293 322 355 344 359 337 5 80 152 177 200 210 181 179 170 171 182 189 188 190 198 192 205 207 214 215 224 231 242 244 241 241 241 242 243 246 248 250
163 163 158 153 155 158 163 155 158 161 164 167 173 178 179 184 172 166 153 158 162 183 174 146 151 155 160 156 168 164 153 152 147 154 158 177 180 205 233 257 252 227 249 273 269 283 292 301 292 202 297 308 357 335 11 334 142 215 214 205 178 163 177 182 192 193 196 190 201 205 206 209 217 218 221 222 234 247 244 243 244 247 247 249 251
158 160 156 148 150 157 158 154 163 167 168 171 173 176 177 178 177 179 161 160 170 185 166 147 151 156 147 154 169 172 163 154 149 154 153 182 199 226 243 243 247 221 240 249 249 254 261 284 302 260 172 265 327 312 326 337 289 230 202 218 164 175 175 189 191 194 179 199 204 208 204 212 217 223 224 221 226 235 247 246 246 247 248 249 251
158 159 156 151 154 152 153 157 162 168 167 172 174 177 184 181 181 184 167 166 175 180 165 154 163 147 148 160 169 162 160 162 155 160 172 190 204 212 232 237 236 226 235 226 229 246 324 236 255 310 183 168 271 279 272 289 249 188 222 235 199 153 177 185 189 183 187 202 204 210 208 202 208 221 220 221 220 227 237 246 247 247 248 249 250
158 157 152 151 147 145 147 150 159 169 167 165 168 178 180 177 175 176 172 173 175 179 165 160 162 146 156 155 154 148 165 175 173 185 183 203 209 227 241 229 200 201 192 73 357 320 272 310 338 317 312 230 228 220 227 227 260 162 194 252 201 226 186 171 186 187 198 201 202 211 190 206 206 216 225 224 222 221 230 236 241 244 248 249 249
154 155 150 147 146 145 143 140 155 160 150 146 152 164 162 163 160 156 159 175 165 157 167 160 153 152 153 154 161 161 174 180 189 196 200 209 208 227 230 196 153 140 132 145 266 270 247 275 295 249 306 314 263 270 255 164 39 42 273 269 265 297 290 175 158 197 200 213 215 204 205 194 208 215 217 221 219 222 226 230 233 238 243 252 251
152 152 149 152 151 151 144 148 155 148 140 143 152 152 154 160 129 145 161 167 159 149 155 156 152 155 154 160 166 174 179 179 185 187 204 220 208 220 198 172 135 116 139 213 237 252 239 211 245 290 195 7 331 5 323 132 120 85 340 338 326 321 314 307 243 194 193 215 221 223 220 193 213 214 218 214 219 225 226 225 230 237 243 248 257
156 153 154 158 155 152 151 150 150 146 144 151 156 145 147 171 157 171 142 142 138 138 143 153 155 149 151 162 172 178 184 191 182 184 208 208 186 185 183 180 161 175 211 291 295 284 299 305 5 5 352 195 255 248 177 95 65 151 153 317 333 319 290 286 276 262 235 195 194 211 215 213 214 218 211 207 221 225 229 223 226 232 239 240 248
156 156 155 153 155 154 151 150 153 146 147 152 144 151 142 160 139 143 129 124 109 134 139 150 152 148 152 162 169 176 178 185 184 193 194 181 168 166 181 182 171 170 149 275 316 300 305 305 355 314 319 334 303 294 263 118 186 86 86 80 309 349 322 339 303 259 236 225 196 202 206 214 217 213 205 205 219 226 229 220 220 228 233 235 240
154 153 153 156 156 154 156 151 153 146 147 156 156 145 153 169 142 114 102 112 141 112 101 125 134 135 148 156 159 163 168 173 181 192 180 147 154 169 173 171 185 162 156 195 256 275 311 310 333 307 108 336 357 319 276 220 130 117 225 197 229 113 334 296 267 283 254 224 186 206 200 214 209 205 186 209 218 220 227 218 219 221 228 232 235
159 157 158 160 160 160 161 155 155 153 151 156 163 151 147 138 103 71 79 64 54 77 93 102 142 153 143 154 178 157 161 173 174 173 161 151 144 148 149 159 155 160 143 170 227 242 252 266 249 273 306 202 321 327 320 24 314 171 142 74 356 16 239 251 355 290 302 224 212 191 203 207 201 194 196 220 216 217 218 219 225 224 228 232 238
162 162 159 157 154 160 158 155 155 157 157 161 170 152 160 160 136 136 124 110 119 134 154 163 168 167 176 172 165 165 163 177 173 185 148 133 151 160 131 139 182 219 162 193 253 306 296 291 247 190 232 15 148 40 339 325 307 303 158 166 160 181 221 269 91 261 325 284 256 211 199 200 195 195 216 220 212 224 216 224 215 229 226 228 231
164 159 155 152 153 158 160 158 160 164 164 169 168 151 153 163 163 166 153 151 156 198 181 176 165 178 142 164 182 175 168 175 192 193 182 160 163 208 181 171 220 229 233 234 271 259 259 242 257 145 211 69 91 51 18 294 335 312 19 306 244 241 169 55 281 351 359 317 337 235 218 201 195 205 214 220 219 218 222 218 216 227 234 228 230
161 158 153 154 156 160 161 162 162 167 173 175 165 161 159 166 164 163 155 154 163 175 185 181 172 160 158 174 177 191 181 191 185 192 192 187 176 211 224 210 218 238 234 228 236 253 224 192 232 165 112 122 134 130 348 5 96 280 333 338 345 359 61 299 137 183 165 26 329 333 20 201 236 228 225 224 213 211 216 215 219 231 238 242 243
160 163 157 159 155 156 161 160 164 167 178 180 167 169 158 163 161 158 160 174 163 168 170 168 169 170 171 180 182 196 190 198 189 184 194 192 194 202 209 218 220 240 245 232 236 227 193 170 181 117 144 224 116 149 100 323 13 308 345 334 350 3 344 16 58 140 88 81 307 340 285 333 248 284 263 251 239 204 209 209 213 219 225 240 251
164 163 154 153 154 153 161 162 167 172 178 181 169 169 160 156 152 161 159 168 171 159 159 166 173 166 178 185 192 195 195 192 189 185 184 193 194 188 188 204 218 227 244 213 216 205 206 178 189 178 152 214 328 122 227 277 272 282 271 205 18 340 7 357 9 14 50 82 131 311 268 216 213 261 248 250 247 222 210 210 220 231 234 241 246
163 162 156 157 156 157 162 167 171 174 177 180 169 172 167 164 158 162 164 167 175 166 165 178 170 164 177 188 190 201 196 193 182 190 186 186 191 180 190 205 207 229 224 205 204 200 203 197 200 164 163 188 230 346 324 323 313 321 312 277 270 235 282 303 294 316 95 32 21 329 329 247 198 263 273 233 237 216 196 198 212 227 233 239 237